Flag for Austria Weather past 2 weeks in Vöcklabruck, Upper Austria, Austria

Now
62 °F

Cool.


Feels Like: 62 °F
Forecast: 54 / 72 °F
Wind: 5 mph from Southwest

Location: Kremsmuenster

Current Time: Sep 2, 2015 at 7:22:32 AM

Latest Report: Sep 2, 2015 at 5:00 AM


Visibility: N/A

Pressure: 29.99 "Hg

Humidity: 89%

Dew point: 58 °F

Location of VöcklabruckLocation

Historic Weather in Vöcklabruck — Graph

°F

Vöcklabruck temperature yesterday

Maximum temperature yesterday: 94 °F (at 4:00 PM)
Minimum temperature yesterday: 69 °F (at 8:00 AM)
Average temperature yesterday: 80 °F

Past Weeks' High & Low Weather Summary

 TemperatureHumidityPressure
High95 °F (Aug 30, 5:00 PM)93% (Aug 20, 6:00 AM)30.27 "Hg (Aug 20, 6:00 AM)
Low49 °F (Aug 26, 7:00 AM)23% (Sep 1, 5:00 PM)29.64 "Hg (Sep 1, 6:00 PM)
Average70 °F62%30.01 "Hg
* Reported Aug 18 5:00 AM — Sep 2 5:00 AM, Vöcklabruck, Weather by CustomWeather, © 2015

Note: Actual official high and low records may vary slightly from our data, if they occured in-between our weather recording intervals... More about our weather records

Advertising

Vöcklabruck weather history for previous 24 hours

 ConditionsComfort  
Time TempWeatherWind HumidityBarometerVisibility
5:00 AM
Wed, Sep 2
62 °FCool.5 mph89%29.99 "HgN/A
4:00 AM62 °FSprinkles. Overcast.6 mph90%30.00 "HgN/A
3:00 AM63 °FSprinkles. Overcast.5 mph89%29.98 "HgN/A
2:00 AM64 °FMild.6 mph90%29.98 "HgN/A
12:00 AM69 °FMild.7 mph66%29.93 "HgN/A
11:00 PM
Tue, Sep 1
71 °FMild.10 mph62%29.91 "HgN/A
10:00 PM73 °FMild.9 mph55%29.88 "HgN/A
9:00 PM78 °FWarm.10 mph43%29.81 "HgN/A
8:00 PM85 °FThunderstorms. Overcast.3 mph37%29.71 "Hg9 mi
7:00 PM87 °FPleasantly warm.3 mph32%29.66 "HgN/A
6:00 PM92 °FHot.2 mph24%29.64 "HgN/A
5:00 PM94 °FPassing clouds.3 mph23%29.65 "Hg34 mi
4:00 PM94 °FExtremely hot.3 mph24%29.66 "HgN/A
3:00 PM93 °FExtremely hot.5 mph26%29.67 "HgN/A
2:00 PM92 °FHot.5 mph28%29.70 "HgN/A
1:00 PM90 °FHot.1 mph31%29.73 "HgN/A
12:00 PM87 °FPleasantly warm.1 mph36%29.76 "HgN/A
11:00 AM82 °FPassing clouds.2 mph47%29.80 "Hg34 mi
10:00 AM78 °FWarm.1 mph49%29.81 "HgN/A
9:00 AM73 °FMild.2 mph58%29.83 "HgN/A
8:00 AM69 °FPassing clouds.3 mph66%29.85 "Hg37 mi
7:00 AM70 °FPassing clouds.3 mph64%29.85 "Hg37 mi
Weather by CustomWeather, © 2015

See weather overviewHow to use our weather pages